User: anonymous   Login
Location: Cassagne
(43.1218°N, 0.9901°E)
Time: 06:39:32
(UTC+00:00)
Language:

Cosmos 1633 Rocket - Orbit

View from above orbital plane
View from above orbital plane
View from above satellite
View from above satellite

Ground track
Ground track

The orbit data is extracted from the following two-line orbital elements,

1 15593U 85020B   20152.09680721 +.00000076 +00000-0 +61777-5 0  9997
2 15593 082.5365 332.9589 0013181 077.9114 282.3577 14.84387797883254
Epoch (UTC): 31 May 2020 02:19:24
Eccentricity: 0.0013181
inclination: 82.5365°
perigee height: 606 km
apogee height: 625 km
right ascension of ascending node: 332.9589°
argument of perigee: 77.9114°
revolutions per day: 14.84387797
mean anomaly at epoch: 282.3577°
orbit number at epoch: 88325

The dashed part of the orbit path shows where the satellite is in the earth's shadow,  

DLR